Back to catalog

STARLINK-1777

AliveCommunicationsVLEO
NORAD 47122·PAYLOAD·🇺🇸 United States

Launched Nov 25, 2020 from Cape Canaveral Space Force Station

Loading…

Next Passes (next 24 hours)

TLE

FreshSource: CelesTrak SupGP

Epoch: Sep 14, 2026, 23:38 UTC

1 47122C 20088A   26257.98520833  .00588900  00000+0  94476-3 0  2573
2 47122  53.0347  66.2598 0001852  67.3357 317.4089 16.02558909    11

Track STARLINK-1777 in real time with AllMySat

Download on the App Store